Tracking 19149 objects as of 22-Apr-2018
HD Live streaming from Space Station
objects crossing your sky now

COSMOS 1168

Track COSMOS 1168 now!
10-day predictions
COSMOS 1168 is classified as:


NORAD ID: 11735
Int'l Code: 1980-022A
Perigee: 962.3 km
Apogee: 1,015.6 km
Inclination: 82.9 °
Period: 104.7 minutes
Semi major axis: 7359 km
RCS: 2.0656 m2 (large)
Launch date: March 17, 1980
Source: Commonwealth of Independent States (former USSR) (CIS)
Launch site: PLESETSK MISSILE AND SPACE COMPLEX (PKMTR)
aabbcc
Your satellite tracking list
Your tracking list is empty




NASA's NSSDC Master Catalog

Two Line Element Set (TLE):
1 11735U 80022A   18112.54818631  .00000036  00000-0  22121-4 0  9999
2 11735  82.9446 319.2499 0036238  30.6331  25.5042 13.74962210911191
Source of the keplerian elements: AFSPC